1501624800.41,25902,24.38,74854.0,9.77,-17.83,-18.31,0,*7E
1501624801.69,25903,24.38,74858.0,9.77,-17.45,-17.97,0,*76
1501624802.94,25904,24.38,74864.3,9.79,-17.93,-18.31,0,*77
1501624804.17,25905,24.38,74866.3,9.79,-17.97,-18.41,0,*75
1501624805.39,25906,24.38,74864.5,9.77,-17.87,-18.21,0,*7F
1501624806.64,25907,24.38,74868.5,9.79,-18.01,-18.55,0,*72
1501624807.86,25908,24.38,74860.5,9.77,-17.83,-18.21,0,*75
1501624809.08,25909,24.38,74870.3,9.79,-17.93,-18.41,0,*7D
1501624810.33,25910,24.38,74870.5,9.79,-17.79,-18.31,0,*76
1501624811.58,25911,24.38,74868.5,9.77,-17.87,-18.35,0,*7C
1501624812.8,25912,24.38,74878.0,9.77,-18.17,-18.65,0,*7C
1501624814.05,25913,24.38,74882.0,9.79,-17.97,-18.55,0,*77
1501624815.28,25914,24.38,74870.3,9.77,-18.07,-18.59,0,*74
1501624816.49,25915,24.38,74876.3,9.79,-18.11,-18.73,0,*74
1501624817.75,25916,24.38,74880.5,9.77,-18.35,-18.89,0,*7A
1501624818.99,25917,24.38,74874.8,9.77,-18.21,-18.59,0,*73
1501624820.19,25918,24.38,74874.8,9.79,-18.11,-18.69,0,*72
1501624821.42,25919,24.38,74872.8,9.77,-18.17,-18.59,0,*78
1501624822.67,25920,24.38,74888.0,9.77,-18.31,-18.73,0,*7E
1501624823.92,25921,24.38,74882.8,9.77,-18.31,-18.73,0,*7F
1501624825.17,25922,24.38,74878.3,9.77,-18.01,-18.45,0,*7A
1501624826.43,25923,24.38,74884.8,9.77,-18.01,-18.59,0,*76
1501624827.67,25924,24.38,74866.3,9.77,-18.07,-18.59,0,*77
1501624828.91,25925,24.38,74872.8,9.77,-18.07,-18.59,0,*76
1501624830.13,25926,24.38,74886.5,9.73,-18.21,-18.65,0,*7A
1501624831.36,25927,24.38,74878.5,9.73,-18.11,-18.65,0,*78
1501624832.58,25928,24.38,74868.3,9.73,-18.11,-18.69,0,*7B
1501624833.81,25929,24.38,74872.0,9.73,-18.11,-18.65,0,*76
1501624835.03,25930,24.38,74878.0,9.73,-18.25,-18.65,0,*79
1501624836.25,25931,24.38,74882.5,9.73,-18.25,-18.83,0,*70
1501624837.5,25932,24.38,74878.8,9.73,-18.35,-18.79,0,*77
1501624838.74,25933,24.38,74886.0,9.73,-18.35,-18.83,0,*73
1501624839.99,25934,24.38,74892.5,9.77,-18.31,-18.79,0,*71
1501624841.24,25935,24.38,74898.0,9.73,-18.41,-18.93,0,*77
1501624842.46,25936,24.38,74890.0,9.73,-18.21,-18.65,0,*7B
1501624843.66,25937,24.38,74888.8,9.79,-18.17,-18.65,0,*75
1501624844.88,25938,24.38,74874.8,9.73,-18.25,-18.79,0,*7C
1501624846.11,25939,24.38,74870.3,9.73,-18.41,-18.99,0,*71
1501624847.36,25940,24.38,74870.0,9.73,-18.41,-18.93,0,*75
1501624848.55,25941,24.38,74880.0,9.71,-18.25,-18.79,0,*70
1501624849.77,25942,24.38,74870.5,9.73,-18.07,-18.65,0,*7C
1501624850.97,25943,24.38,74886.5,9.71,-18.21,-18.69,0,*77
1501624852.19,25944,24.38,74886.3,9.73,-18.11,-18.65,0,*7D
1501624853.41,25945,24.38,74884.8,9.71,-18.11,-18.55,0,*7D
1501624854.6,25946,24.38,74884.0,9.71,-18.11,-18.69,0,*71
1501624855.8,25947,24.38,74880.0,9.71,-18.21,-18.65,0,*7F
1501624857.02,25948,24.38,74878.5,9.71,-18.07,-18.55,0,*77
1501624858.27,25949,24.38,74878.5,9.71,-17.45,-18.01,0,*7E
1501624859.47,25950,24.38,74880.8,9.71,-17.73,-18.11,0,*72
1501624860.72,25951,24.38,74886.5,9.73,-17.59,-18.11,0,*79
1501624861.97,25952,24.38,74882.0,9.73,-17.49,-18.01,0,*7A
1501624863.17,25953,24.38,74882.3,9.71,-17.73,-18.11,0,*71
1501624864.42,25954,24.38,74886.5,9.73,-17.79,-18.11,0,*7E
1501624865.64,25955,24.38,74888.0,9.71,-17.63,-18.07,0,*71
1501624866.86,25956,24.38,74888.8,9.71,-17.35,-17.79,0,*77
1501624868.14,25957,24.38,74888.8,9.73,-17.21,-17.79,0,*71
1501624869.37,25958,24.38,74888.8,9.73,-16.89,-17.35,0,*75
1501624870.65,25959,24.38,74890.8,9.77,-16.65,-17.07,0,*73
1501624871.92,25960,24.38,74894.0,9.77,-16.17,-16.51,0,*7E
1501624873.12,25961,24.38,74896.5,9.79,-15.63,-16.03,0,*76
1501624874.38,25962,24.38,74894.8,9.81,-15.43,-15.75,0,*72
1501624875.58,25963,24.38,74892.8,9.83,-15.25,-15.53,0,*75
1501624876.79,25964,24.38,74894.0,9.83,-15.29,-15.71,0,*7E
1501624878.01,25965,24.38,74892.5,9.87,-15.49,-15.81,0,*72
1501624879.23,25966,24.38,74892.8,9.89,-16.03,-16.45,0,*79
1501624880.46,25967,24.38,74890.8,9.91,-16.31,-16.75,0,*73
1501624881.69,25968,24.38,74890.8,9.91,-16.09,-16.59,0,*79
1501624882.89,25969,24.38,74880.5,9.91,-16.45,-16.93,0,*76
1501624884.14,25970,24.38,74884.5,9.93,-16.31,-16.75,0,*77
1501624885.42,25971,24.38,74884.8,9.93,-16.17,-16.69,0,*7F
1501624886.62,25972,24.38,74886.8,9.95,-16.41,-16.83,0,*7D
1501624887.85,25973,24.38,74880.5,9.99,-16.23,-16.55,0,*7F
1501624889.05,25974,24.38,74878.3,9.99,-16.55,-16.89,0,*78
1501624890.28,25975,24.38,74882.3,9.99,-16.97,-17.41,0,*72
1501624891.5,25976,24.38,74884.3,9.99,-16.89,-17.41,0,*7E
1501624892.75,25977,24.38,74884.8,10.01,-16.83,-17.25,0,*4E
1501624894.0,25978,24.38,74886.0,10.01,-17.35,-17.63,0,*4F
1501624895.26,25979,24.38,74884.5,10.01,-17.55,-17.87,0,*42
1501624896.53,25980,24.38,74894.0,10.01,-17.63,-17.97,0,*40
1501624897.81,25981,24.38,74894.3,10.01,-17.41,-17.63,0,*4A
1501624899.06,25982,24.38,74892.5,9.99,-17.25,-17.45,0,*76
1501624900.29,25983,24.38,74892.8,9.99,-17.17,-17.31,0,*75
1501624901.56,25984,24.38,74896.5,10.01,-17.11,-17.25,0,*48
1501624902.75,25985,24.38,74914.8,9.99,-16.89,-16.89,0,*77
1501624904.01,25986,24.38,74912.3,10.01,-16.65,-16.59,0,*42
1501624905.29,25987,24.38,74916.5,10.01,-16.17,-16.23,0,*4B
1501624906.54,25988,24.38,74906.8,10.03,-16.17,-16.27,0,*42
1501624907.79,25989,24.38,74898.8,10.03,-16.17,-16.27,0,*43
1501624909.04,25990,24.38,74884.5,10.05,-16.69,-16.59,0,*4D
1501624910.27,25991,24.38,74882.0,10.03,-16.55,-16.69,0,*46
1501624911.49,25992,24.38,74882.3,10.03,-16.31,-16.41,0,*4D
1501624912.69,25993,24.38,74878.8,10.03,-16.45,-16.55,0,*4A
1501624913.93,25994,24.38,74870.0,10.05,-16.75,-17.03,0,*4A
1501624915.17,25995,24.38,74866.0,10.05,-17.17,-17.31,0,*4F
1501624916.4,25996,24.38,74856.5,10.05,-17.49,-17.79,0,*4B
1501624917.66,25997,24.38,74844.8,10.03,-17.59,-17.97,0,*4D
1501624918.89,25998,24.38,74844.3,10.05,-17.79,-18.11,0,*47
1501624920.12,25999,24.38,74842.3,10.03,-17.79,-18.11,0,*40
1501624921.33,26000,24.38,74842.8,10.05,-17.69,-18.07,0,*4A
1501624922.54,26001,24.38,74832.0,10.03,-17.69,-18.11,0,*4A
1501624923.73,26002,24.38,74842.3,10.03,-17.83,-18.25,0,*4A
1501624924.93,26003,24.38,74850.5,10.03,-17.83,-18.41,0,*49
1501624926.15,26004,24.38,74844.8,10.01,-17.69,-18.25,0,*4A
1501624927.37,26005,24.38,74852.0,10.03,-17.63,-18.21,0,*47
1501624928.59,26006,24.38,74854.5,10.01,-17.87,-18.25,0,*48
1501624929.84,26007,24.38,74862.3,10.01,-17.87,-18.31,0,*4C
1501624931.09,26008,24.38,74854.0,10.01,-18.01,-18.41,0,*45
1501624932.34,26009,24.38,74848.8,10.01,-18.01,-18.45,0,*40
1501624933.61,26010,24.38,74846.3,10.01,-18.01,-18.55,0,*49
1501624934.83,26011,24.38,74848.5,9.99,-18.07,-18.59,0,*7B
1501624936.05,26012,24.38,74850.5,9.99,-18.17,-18.59,0,*79
1501624937.26,26013,24.38,74848.0,9.99,-18.17,-18.59,0,*78
1501624938.46,26014,24.38,74856.8,9.99,-18.21,-18.73,0,*72
1501624939.68,26015,24.38,74856.5,9.99,-18.17,-18.59,0,*7E
1501624940.88,26016,24.38,74848.8,9.99,-18.17,-18.65,0,*72
1501624942.12,26017,24.38,74858.3,9.95,-18.01,-18.59,0,*77
1501624943.32,26018,24.38,74860.0,9.99,-18.17,-18.65,0,*7C
1501624944.52,26019,24.38,74858.8,9.95,-18.17,-18.65,0,*71
1501624945.72,26020,24.38,74848.0,9.95,-18.07,-18.65,0,*7A
1501624946.97,26021,24.38,74844.8,9.93,-18.35,-18.79,0,*71
1501624948.21,26022,24.38,74858.3,9.93,-18.35,-18.79,0,*72
1501624949.45,26023,24.38,74870.0,9.93,-18.35,-18.83,0,*76
1501624950.67,26024,24.38,74868.8,9.93,-18.41,-18.83,0,*72
1501624951.87,26025,24.38,74854.8,9.91,-18.25,-18.73,0,*7C
1501624953.1,26026,24.38,74854.0,9.91,-18.31,-18.73,0,*7A
1501624954.34,26027,24.38,74868.0,9.91,-18.31,-18.73,0,*7B
1501624955.6,26028,24.38,74852.0,9.89,-18.01,-18.59,0,*76
1501624956.87,26029,24.38,74848.0,9.89,-17.97,-18.59,0,*77
1501624958.13,26030,24.38,74848.5,9.89,-17.97,-18.45,0,*72
1501624959.36,26031,24.38,74862.0,9.91,-17.97,-18.45,0,*7A
1501624960.64,26032,24.38,74844.5,9.89,-17.97,-18.31,0,*73
1501624961.87,26033,24.38,74854.0,9.91,-17.41,-17.87,0,*72
1501624963.13,26034,24.38,74856.3,9.89,-17.63,-18.11,0,*7C
1501624964.38,26035,24.38,74862.3,9.89,-17.49,-17.97,0,*74
1501624965.57,26036,24.38,74866.3,9.91,-17.69,-18.25,0,*7A
1501624966.83,26037,24.38,74870.3,9.89,-17.69,-18.31,0,*77
1501624968.06,26038,24.38,74870.8,9.91,-17.41,-18.11,0,*79
1501624969.28,26039,24.38,74876.3,9.91,-17.63,-18.17,0,*7E
1501624970.51,26040,24.38,74878.8,9.91,-17.83,-18.31,0,*7A
1501624971.74,26041,24.38,74870.5,9.91,-17.25,-17.83,0,*71
1501624972.99,26042,24.38,74870.3,9.91,-17.55,-18.01,0,*70
1501624974.2,26043,24.38,74866.8,9.91,-17.35,-17.83,0,*72
1501624975.45,26044,24.38,74874.3,9.91,-17.11,-17.63,0,*7D
1501624976.67,26045,24.38,74878.0,9.93,-16.89,-17.35,0,*7D
1501624977.9,26046,24.38,74866.0,9.95,-16.89,-17.45,0,*7F
1501624979.13,26047,24.38,74856.5,9.95,-17.17,-17.69,0,*76
1501624980.41,26048,24.38,74868.8,9.93,-17.07,-17.59,0,*7D
1501624981.64,26049,24.38,74872.3,9.95,-17.17,-17.69,0,*78
1501624982.9,26050,24.38,74866.3,9.95,-17.25,-17.79,0,*70
1501624984.13,26051,24.38,74872.8,9.95,-17.17,-17.69,0,*71
1501624985.38,26052,24.38,74868.3,9.95,-17.03,-17.45,0,*79
1501624986.61,26053,24.38,74886.5,9.95,-16.97,-17.59,0,*79
1501624987.84,26054,24.38,74892.5,9.99,-17.25,-17.73,0,*72
1501624989.06,26055,24.38,74876.0,9.99,-16.89,-17.45,0,*71
1501624990.28,26056,24.38,74868.5,9.99,-17.11,-17.69,0,*7C
1501624991.56,26057,24.38,74862.5,10.01,-16.65,-17.25,0,*4E
1501624992.84,26058,24.38,74866.0,10.01,-16.65,-17.11,0,*46
1501624994.04,26059,24.38,74864.8,10.03,-16.75,-17.31,0,*46
1501624995.27,26060,24.38,74868.0,10.01,-16.79,-17.35,0,*46
1501624996.51,26061,24.38,74864.5,10.05,-16.89,-17.45,0,*4B
1501624997.7,26062,24.38,74874.8,10.03,-16.93,-17.49,0,*49
1501624998.94,26063,24.38,74878.0,10.03,-17.21,-17.83,0,*46
1501625000.14,26064,24.38,74866.5,10.05,-17.69,-18.25,0,*48
1501625001.36,26065,24.38,74870.5,10.03,-17.63,-18.21,0,*41
1501625002.58,26066,24.38,74876.3,10.05,-17.63,-18.25,0,*40
1501625003.78,26067,24.38,74880.0,10.03,-17.69,-18.25,0,*4D
1501625005.01,26068,24.38,74880.8,10.03,-17.83,-18.35,0,*47
1501625006.2,26069,24.38,74874.3,10.03,-17.69,-18.25,0,*43
1501625007.43,26070,24.38,74882.8,10.03,-17.69,-18.35,0,*4A
1501625008.65,26071,24.38,74874.5,10.03,-17.63,-18.21,0,*44
1501625009.84,26072,24.31,74876.5,10.03,-16.93,-17.49,0,*48
1501625011.07,26073,24.38,74882.3,10.05,-16.93,-17.45,0,*43
1501625012.33,26074,24.38,74886.0,10.05,-17.21,-17.93,0,*47
1501625013.54,26075,24.38,74878.8,10.05,-17.49,-18.07,0,*4A
1501625014.74,26076,24.38,74876.3,10.03,-17.69,-18.25,0,*4D
1501625015.99,26077,24.38,74860.0,10.05,-17.93,-18.55,0,*48
1501625017.2,26078,24.38,74856.0,10.03,-17.83,-18.49,0,*4D
1501625018.39,26079,24.31,74854.5,10.03,-17.69,-18.25,0,*42
1501625019.64,26080,24.38,74854.5,10.03,-17.93,-18.55,0,*46
1501625020.86,26081,24.38,74876.3,10.03,-17.93,-18.49,0,*4A
1501625022.09,26082,24.38,74874.8,10.03,-17.83,-18.55,0,*45
1501625023.34,26083,24.38,74870.0,10.01,-17.97,-18.69,0,*4C
1501625024.61,26084,24.38,74866.5,10.01,-18.01,-18.59,0,*48
1501625025.86,26085,24.38,74868.5,10.03,-17.79,-18.35,0,*41
1501625027.11,26086,24.38,74874.0,10.03,-17.79,-18.35,0,*42
1501625028.36,26087,24.38,74856.8,10.01,-17.69,-18.31,0,*44
1501625029.61,26088,24.38,74862.5,10.01,-17.55,-18.11,0,*46
1501625030.85,26089,24.38,74882.0,10.01,-17.63,-18.17,0,*44
1501625032.07,26090,24.38,74880.8,10.01,-17.69,-18.41,0,*45
1501625033.32,26091,24.38,74886.0,10.01,-17.83,-18.55,0,*45
1501625034.54,26092,24.38,74880.3,10.01,-17.69,-18.25,0,*45
1501625035.78,26093,24.38,74882.0,10.01,-17.63,-18.17,0,*4F
1501625037.0,26094,24.38,74882.0,10.01,-17.69,-18.25,0,*43
1501625038.25,26095,24.38,74870.3,10.01,-17.69,-18.31,0,*47
1501625039.5,26096,24.38,74864.0,10.01,-17.73,-18.31,0,*4F
1501625040.73,26097,24.38,74872.0,10.01,-17.87,-18.45,0,*46
1501625041.98,26098,24.38,74868.8,10.01,-17.83,-18.35,0,*4A
1501625043.23,26099,24.38,74870.5,10.01,-17.73,-18.31,0,*40
1501625044.45,26100,24.38,74878.8,10.01,-17.69,-18.25,0,*4F
1501625045.67,26101,24.31,74868.3,10.01,-17.69,-18.25,0,*4E
1501625046.92,26102,24.31,74872.5,10.01,-18.01,-18.45,0,*4A
1501625048.15,26103,24.38,74884.8,10.03,-17.97,-18.49,0,*45
1501625049.42,26104,24.38,74866.8,10.01,-17.97,-18.55,0,*4D
1501625050.67,26105,24.38,74874.3,10.01,-18.01,-18.69,0,*43
1501625051.92,26106,24.38,74878.8,10.01,-17.87,-18.55,0,*4E
1501625053.14,26107,24.38,74872.3,10.01,-17.69,-18.25,0,*48
1501625054.37,26108,24.38,74866.0,10.01,-17.63,-18.25,0,*4D
1501625055.62,26109,24.38,74868.0,9.99,-17.79,-18.31,0,*7B
1501625056.84,26110,24.31,74870.5,10.01,-17.69,-18.25,0,*4E
1501625058.08,26111,24.38,74870.5,10.01,-17.63,-18.17,0,*44
1501625059.28,26112,24.38,74878.8,9.99,-17.69,-18.11,0,*72
1501625060.53,26113,24.38,74872.0,10.01,-17.63,-18.11,0,*40
1501625061.78,26114,24.38,74866.5,10.01,-17.63,-18.17,0,*41
1501625063.03,26115,24.38,74870.8,10.01,-17.63,-18.11,0,*46
1501625064.26,26116,24.31,74870.5,10.01,-16.79,-17.35,0,*46
1501625065.48,26117,24.38,74870.3,10.03,-16.03,-16.69,0,*40
1501625066.72,26118,24.38,74868.3,10.03,-16.69,-17.35,0,*4B
1501625067.99,26119,24.38,74852.3,10.05,-17.17,-17.59,0,*4E
1501625069.24,26120,24.38,74856.3,10.03,-17.07,-17.59,0,*43
1501625070.47,26121,24.38,74868.3,10.05,-17.07,-17.49,0,*45
1501625071.74,26122,24.31,74874.8,10.05,-17.07,-17.59,0,*47
1501625072.98,26123,24.38,74882.3,10.05,-17.45,-17.83,0,*47
1501625074.22,26124,24.31,74870.5,10.05,-17.03,-17.49,0,*44
1501625075.45,26125,24.38,74872.8,10.05,-16.75,-17.17,0,*4E
1501625076.74,26126,24.31,74864.0,10.07,-16.51,-17.03,0,*4C
1501625077.97,26127,24.38,74868.8,10.09,-16.59,-17.21,0,*4B
1501625079.22,26128,24.38,74870.0,10.09,-17.07,-17.55,0,*4D
1501625080.45,26129,24.38,74874.3,10.09,-17.21,-17.69,0,*47
1501625081.68,26130,24.38,74880.0,10.09,-17.21,-17.73,0,*44
1501625082.92,26131,24.38,74884.5,10.09,-17.25,-17.83,0,*4E
1501625084.18,26132,24.31,74868.8,10.11,-17.25,-17.83,0,*44
1501625085.45,26133,24.31,74872.0,10.11,-17.41,-17.83,0,*47
1501625086.71,26134,24.31,74880.8,10.11,-17.21,-17.69,0,*42
1501625087.94,26135,24.31,74884.5,10.11,-16.59,-16.97,0,*4D
1501625089.18,26136,24.31,74896.3,10.11,-16.37,-16.83,0,*43
1501625090.46,26137,24.38,74892.5,10.11,-16.51,-17.11,0,*48
1501625091.69,26138,24.31,74890.0,10.13,-16.79,-17.45,0,*4E
1501625092.95,26139,24.38,74894.0,10.17,-17.17,-17.63,0,*46
1501625094.15,26140,24.38,74902.8,10.13,-16.89,-17.49,0,*42
1501625095.38,26141,24.38,74886.3,10.15,-16.75,-17.31,0,*49
1501625096.66,26142,24.38,74888.3,10.15,-17.03,-17.55,0,*48
1501625097.91,26143,24.38,74888.3,10.15,-16.93,-17.55,0,*41
1501625099.17,26144,24.38,74890.0,10.15,-16.75,-17.21,0,*4D
1501625100.4,26145,24.38,74898.3,10.17,-16.69,-17.31,0,*42
1501625101.65,26146,24.31,74896.0,10.17,-16.69,-17.17,0,*45
1501625102.93,26147,24.38,74892.3,10.15,-16.65,-17.03,0,*4F
1501625104.17,26148,24.38,74902.5,10.17,-16.55,-17.11,0,*42
1501625105.39,26149,24.38,74892.0,10.21,-16.93,-17.41,0,*49
1501625106.65,26150,24.31,74886.0,10.21,-17.07,-17.45,0,*49
1501625107.88,26151,24.31,74888.5,10.21,-16.79,-17.25,0,*46
1501625109.11,26152,24.31,74890.0,10.21,-17.25,-17.69,0,*45
1501625110.33,26153,24.38,74884.8,10.21,-16.79,-17.25,0,*44
1501625111.59,26154,24.38,74882.0,10.21,-16.65,-17.11,0,*49
1501625112.82,26155,24.38,74872.8,10.21,-17.25,-17.69,0,*42
1501625114.05,26156,24.38,74870.5,10.21,-17.21,-17.73,0,*4E
1501625115.26,26157,24.38,74864.5,10.21,-17.35,-17.83,0,*45
1501625116.49,26158,24.38,74868.5,10.21,-17.25,-17.73,0,*44
1501625117.7,26159,24.31,74866.5,10.21,-17.35,-17.87,0,*4F
1501625118.92,26160,24.31,74862.3,10.21,-17.59,-18.17,0,*49
1501625120.12,26161,24.31,74856.8,10.21,-17.87,-18.41,0,*48
1501625121.32,26162,24.38,74856.5,10.21,-18.17,-18.65,0,*4B
1501625122.52,26163,24.31,74860.0,10.17,-18.21,-18.79,0,*47
1501625123.75,26164,24.31,74856.3,10.17,-18.31,-18.79,0,*41
1501625125.0,26165,24.38,74856.8,10.15,-18.35,-18.83,0,*43
1501625126.2,26166,24.31,74850.0,10.17,-18.17,-18.69,0,*46
1501625127.45,26167,24.38,74848.3,10.15,-17.93,-18.49,0,*44
1501625128.66,26168,24.31,74852.3,10.17,-18.21,-18.65,0,*41
1501625129.91,26169,24.38,74864.0,10.15,-18.11,-18.55,0,*42
1501625131.16,26170,24.31,74864.0,10.15,-17.93,-18.41,0,*4A
1501625132.36,26171,24.31,74860.3,10.13,-17.69,-18.21,0,*4E
1501625133.58,26172,24.31,74872.0,10.13,-17.63,-18.07,0,*43
1501625134.79,26173,24.31,74878.0,10.13,-17.83,-18.41,0,*4E
1501625136.06,26174,24.31,74864.0,10.11,-18.01,-18.59,0,*47
1501625137.26,26175,24.31,74850.5,10.13,-18.11,-18.79,0,*47
1501625138.53,26176,24.38,74860.3,10.11,-17.97,-18.59,0,*45
1501625139.77,26177,24.38,74856.8,10.11,-17.83,-18.41,0,*48
1501625141.0,26178,24.31,74866.5,10.11,-18.17,-18.73,0,*44
1501625142.23,26179,24.31,74866.8,10.11,-18.11,-18.65,0,*44
1501625143.51,26180,24.31,74868.8,10.11,-18.01,-18.55,0,*40
1501625144.77,26181,24.31,74856.0,10.11,-18.01,-18.45,0,*40
1501625146.05,26182,24.38,74852.0,10.11,-17.97,-18.55,0,*42
1501625147.28,26183,24.38,74844.5,10.09,-17.59,-18.17,0,*4E
1501625148.52,26184,24.38,74854.0,10.11,-17.49,-17.87,0,*47
1501625149.8,26185,24.31,74848.0,10.11,-17.55,-18.01,0,*4A
1501625151.06,26186,24.31,74848.5,10.11,-17.55,-18.11,0,*48
1501625152.29,26187,24.38,74850.5,10.09,-17.55,-18.11,0,*40
1501625153.51,26188,24.31,74846.3,10.11,-17.69,-18.25,0,*4E
1501625154.8,26189,24.31,74828.5,10.11,-17.55,-18.01,0,*46
1501625156.06,26190,24.31,74814.5,10.11,-17.25,-17.69,0,*48
1501625157.34,26191,24.31,74842.8,10.11,-17.11,-17.59,0,*4D
1501625158.6,26192,24.31,74862.8,10.11,-16.79,-17.21,0,*4E
1501625159.86,26193,24.31,74864.0,10.11,-16.17,-16.59,0,*49
1501625161.1,26194,24.31,74854.3,10.11,-16.37,-16.83,0,*4B
1501625162.31,26195,24.31,74870.8,10.13,-16.41,-16.89,0,*43
1501625163.56,26196,24.38,74864.5,10.15,-16.89,-17.45,0,*43
1501625164.82,26197,24.31,74860.0,10.15,-17.55,-18.11,0,*4C
1501625166.05,26198,24.31,74862.3,10.15,-17.83,-18.25,0,*4F
1501625167.27,26199,24.31,74866.3,10.15,-17.83,-18.41,0,*4C
1501625168.55,26200,24.31,74870.3,10.15,-17.97,-18.55,0,*4F
1501625169.81,26201,24.31,74878.0,10.15,-18.07,-18.55,0,*48
1501625171.01,26202,24.31,74872.0,10.13,-18.17,-18.65,0,*4F
1501625172.21,26203,24.31,74872.0,10.13,-18.11,-18.65,0,*48
1501625173.44,26204,24.31,74868.8,10.13,-18.07,-18.55,0,*4B
1501625174.67,26205,24.31,74856.0,10.13,-17.55,-18.07,0,*45
1501625175.91,26206,24.31,74854.8,10.11,-17.49,-17.87,0,*4E
1501625177.14,26207,24.31,74860.3,10.11,-17.49,-17.87,0,*4F
1501625178.37,26208,24.31,74864.5,10.13,-17.35,-17.93,0,*4C
1501625179.6,26209,24.38,74874.3,10.13,-16.79,-17.21,0,*4D
1501625180.84,26210,24.31,74870.8,10.13,-14.01,-14.29,0,*43
1501625182.05,26211,24.31,74864.5,10.17,-14.23,-14.61,0,*4A
1501625183.29,26212,24.31,74866.3,10.23,-13.47,-13.87,0,*44
1501625184.55,26213,24.31,74890.3,10.27,-13.37,-13.65,0,*4A
1501625185.77,26214,24.31,74876.0,10.29,-15.71,-16.23,0,*40
1501625187.02,26215,24.31,74850.5,10.31,-16.93,-17.41,0,*42
1501625188.25,26216,24.31,74822.0,10.29,-17.35,-17.93,0,*4A
1501625189.48,26217,24.31,74802.3,10.29,-17.49,-17.93,0,*40
1501625190.7,26218,24.31,74788.8,10.29,-17.63,-18.07,0,*45
1501625191.9,26219,24.31,74796.3,10.29,-17.87,-18.21,0,*4A
1501625193.15,26220,24.31,74796.3,10.27,-17.31,-17.79,0,*41
1501625194.39,26221,24.31,74828.5,10.25,-17.17,-17.69,0,*47
1501625195.59,26222,24.31,74836.8,10.25,-17.49,-18.11,0,*4F
1501625196.81,26223,24.31,74836.3,10.25,-17.69,-18.35,0,*4A
1501625198.04,26224,24.31,74842.0,10.27,-17.69,-18.25,0,*4E
1501625199.26,26225,24.31,74844.5,10.25,-17.83,-18.35,0,*48
1501625200.51,26226,24.31,74832.5,10.25,-17.63,-18.35,0,*45
1501625201.76,26227,24.31,74846.8,10.25,-17.97,-18.55,0,*49
1501625202.99,26228,24.31,74842.3,10.25,-18.07,-18.55,0,*40
1501625204.19,26229,24.31,74842.0,10.25,-17.49,-18.07,0,*43
1501625205.42,26230,24.31,74844.0,10.25,-17.17,-17.49,0,*45
1501625206.64,26231,24.31,74862.8,10.25,-16.03,-16.51,0,*48
1501625207.84,26232,24.31,74860.5,10.25,-15.63,-16.03,0,*49
1501625209.12,26233,24.31,74856.5,10.27,-15.85,-16.27,0,*44
1501625210.33,26234,24.31,74866.5,10.27,-15.99,-16.45,0,*4A
1501625211.59,26235,24.31,74854.8,10.31,-16.51,-16.97,0,*44
1501625212.8,26236,24.31,74846.8,10.29,-16.83,-17.35,0,*48
1501625214.08,26237,24.31,74840.8,10.31,-16.51,-17.11,0,*49
1501625215.33,26238,24.31,74844.8,10.31,-16.79,-17.25,0,*4B
1501625216.61,26239,24.31,74846.3,10.31,-17.11,-17.59,0,*4E
1501625217.86,26240,24.31,74850.5,10.33,-16.65,-17.21,0,*4F
1501625219.12,26241,24.31,74866.3,10.33,-17.17,-17.55,0,*49
1501625220.34,26242,24.31,74880.0,10.31,-17.31,-17.73,0,*48
1501625221.6,26243,24.31,74878.8,10.31,-17.41,-17.87,0,*45
1501625222.81,26244,24.31,74892.8,10.29,-17.35,-17.87,0,*48
1501625224.05,26245,24.31,74888.5,10.31,-17.31,-17.87,0,*44
1501625225.28,26246,24.31,74894.0,10.31,-17.31,-17.83,0,*43
1501625226.53,26247,24.31,74894.0,10.31,-16.93,-17.45,0,*41
1501625227.78,26248,24.31,74896.5,10.31,-16.79,-17.21,0,*48
1501625229.06,26249,24.31,74904.5,10.31,-17.07,-17.55,0,*42
1501625230.3,26250,24.31,74896.8,10.31,-17.31,-17.87,0,*40
1501625231.58,26251,24.31,74896.5,10.31,-17.45,-18.01,0,*43
1501625232.87,26252,24.31,74892.8,10.31,-17.41,-17.97,0,*44
1501625234.15,26253,24.31,74882.3,10.31,-17.45,-18.01,0,*41
1501625235.4,26254,24.31,74882.8,10.31,-17.59,-18.17,0,*4C
1501625236.66,26255,24.31,74884.5,10.31,-17.83,-18.31,0,*4E
1501625237.87,26256,24.31,74876.3,10.29,-17.87,-18.49,0,*4F
1501625239.12,26257,24.31,74872.3,10.31,-17.83,-18.35,0,*48
1501625240.35,26258,24.31,74890.0,10.29,-17.83,-18.35,0,*4E
1501625241.6,26259,24.31,74880.3,10.27,-17.79,-18.45,0,*43
1501625242.84,26260,24.31,74872.3,10.27,-17.83,-18.45,0,*4C
1501625244.09,26261,24.31,74868.8,10.27,-17.93,-18.45,0,*4C
1501625245.37,26262,24.31,74874.5,10.27,-17.97,-18.55,0,*4A
1501625246.62,26263,24.31,74870.0,10.25,-17.97,-18.55,0,*49
1501625247.85,26264,24.31,74848.5,10.27,-18.11,-18.69,0,*42
1501625249.07,26265,24.31,74846.0,10.27,-18.11,-18.69,0,*43
1501625250.27,26266,24.31,74846.3,10.25,-18.07,-18.69,0,*45
1501625251.49,26267,24.31,74850.3,10.25,-18.11,-18.59,0,*40
1501625252.74,26268,24.31,74852.3,10.25,-17.93,-18.55,0,*46
1501625253.99,26269,24.31,74852.8,10.23,-18.01,-18.49,0,*48
1501625255.23,26270,24.31,74856.8,10.21,-17.97,-18.59,0,*43
1501625256.48,26271,24.31,74854.3,10.21,-18.01,-18.59,0,*42
1501625257.71,26272,24.31,74852.0,10.21,-17.97,-18.49,0,*40
1501625258.96,26273,24.31,74856.0,10.21,-17.97,-18.59,0,*40
1501625260.19,26274,24.31,74854.5,10.21,-17.97,-18.45,0,*4A
1501625261.39,26275,24.31,74854.3,10.21,-17.87,-18.45,0,*4A
1501625262.62,26276,24.31,74854.5,10.17,-17.93,-18.65,0,*4B
1501625263.82,26277,24.31,74854.0,10.17,-17.87,-18.49,0,*41
1501625265.1,26278,24.31,74848.8,10.15,-17.97,-18.59,0,*4C
1501625266.3,26279,24.31,74846.0,10.21,-17.87,-18.49,0,*4A
1501625267.55,26280,24.31,74844.5,10.17,-18.01,-18.55,0,*45
1501625268.8,26281,24.31,74844.5,10.15,-18.07,-18.59,0,*4C
1501625270.03,26282,24.31,74834.3,10.15,-18.25,-18.73,0,*47
1501625271.25,26283,24.31,74830.8,10.15,-18.25,-18.83,0,*49
1501625272.48,26284,24.31,74836.0,10.15,-18.25,-18.83,0,*4E
1501625273.7,26285,24.31,74834.5,10.15,-18.25,-18.83,0,*4F
1501625274.9,26286,24.31,74836.5,10.17,-18.17,-18.69,0,*4B
1501625276.16,26287,24.31,74834.3,10.15,-17.97,-18.49,0,*4D
1501625277.39,26288,24.31,74830.8,10.15,-18.11,-18.49,0,*43
1501625278.64,26289,24.31,74832.5,10.15,-18.11,-18.55,0,*4F
1501625279.87,26290,24.31,74836.0,10.15,-18.07,-18.69,0,*4F
1501625281.1,26291,24.31,74846.8,10.15,-18.11,-18.69,0,*49
1501625282.33,26292,24.31,74858.8,10.15,-18.11,-18.69,0,*4A
1501625283.55,26293,24.31,74864.0,10.15,-18.11,-18.69,0,*4B
1501625284.79,26294,24.31,74862.8,10.11,-18.17,-18.73,0,*45
1501625285.99,26295,24.31,74862.0,10.13,-18.07,-18.69,0,*4C
1501625287.19,26296,24.31,74866.5,10.13,-18.21,-18.69,0,*4B
1501625288.43,26297,24.31,74860.0,10.11,-18.25,-18.73,0,*47
1501625289.69,26298,24.31,74864.8,10.11,-18.31,-18.73,0,*4D
1501625290.93,26299,24.31,74870.5,10.11,-18.25,-18.73,0,*49
1501625292.15,26300,24.31,74866.0,10.11,-18.25,-18.79,0,*42
1501625293.44,26301,24.31,74852.5,10.11,-18.31,-18.89,0,*49
1501625294.69,26302,24.31,74856.3,10.11,-18.31,-18.79,0,*45
1501625295.95,26303,24.31,74854.8,10.07,-18.31,-18.83,0,*46